Location: Mount Cross
(36.6390°N, 79.4878°W)
Time: 20:21:54
(UTC+00:00)

Courier 1B Rocket - All Passes

Search period start: 21 March 2023 00:00
Search period end: 31 March 2023 00:00
Orbit: 920 x 1202 km, 28.2° (Epoch: 21 March)

Date Brightness Start Highest point End Pass type
(mag) Time Alt. Az. Time Alt. Az. Time Alt. Az.
21 Mar - 02:25:00 10° SSW 02:29:59 23° SSE 02:34:49 10° ESE visible
21 Mar - 04:16:59 10° WSW 04:22:44 37° S 04:28:25 10° ESE night (unlit)
21 Mar - 06:09:58 10° WSW 06:15:35 35° S 06:21:14 10° SE night (unlit)
21 Mar - 08:03:51 10° WSW 08:08:17 20° SSW 08:12:50 10° SSE visible
22 Mar - 01:24:46 10° SSW 01:29:08 18° SSE 01:33:21 10° ESE visible
22 Mar - 03:16:07 10° SW 03:21:52 34° S 03:27:25 10° ESE visible
22 Mar - 05:08:57 10° WSW 05:14:43 38° S 05:20:25 10° ESE night (unlit)
22 Mar - 07:02:28 10° WSW 07:07:28 25° SSW 07:12:32 10° SE night (unlit)
23 Mar - 00:25:06 10° S 00:28:16 14° SSE 00:31:21 10° SE visible
23 Mar - 02:15:20 10° SW 02:20:58 29° SSE 02:26:22 10° ESE visible
23 Mar - 04:07:55 10° WSW 04:13:50 39° S 04:19:34 10° ESE night (unlit)
23 Mar - 06:01:14 10° WSW 06:06:38 31° SSW 06:12:01 10° SE night (unlit)
23 Mar - 07:56:01 10° WSW 07:59:13 14° SSW 08:02:27 10° S night (unlit)
24 Mar - 01:14:43 10° SSW 01:20:05 25° SSE 01:25:12 10° ESE visible
24 Mar - 03:06:54 10° WSW 03:12:55 38° S 03:18:40 10° ESE visible
24 Mar - 05:00:04 10° WSW 05:05:47 35° S 05:11:23 10° SE night (unlit)
24 Mar - 06:54:07 10° WSW 06:58:26 20° SSW 07:02:46 10° SSE night (unlit)
25 Mar - 00:14:20 10° SSW 00:19:10 20° SSE 00:23:47 10° ESE visible
25 Mar - 02:05:56 10° SW 02:11:59 35° S 02:17:44 10° ESE visible
25 Mar - 03:58:56 10° WSW 04:04:54 39° S 04:10:39 10° ESE night (unlit)
25 Mar - 05:52:37 10° WSW 05:57:38 25° SSW 06:02:37 10° SE night (unlit)
25 Mar - 23:14:26 10° S 23:18:15 15° SSE 23:21:56 10° ESE daylight
26 Mar - 01:05:03 10° SW 01:11:03 31° SSE 01:16:43 10° ESE visible
26 Mar - 02:57:47 10° WSW 03:03:59 40° S 03:09:51 10° ESE visible
26 Mar - 04:51:16 10° WSW 04:56:49 31° SSW 05:02:12 10° SE night (unlit)
26 Mar - 06:46:19 10° SW 06:49:22 14° SSW 06:52:24 10° S night (unlit)
26 Mar - 22:16:01 10° SSE 22:17:18 10° SSE 22:18:34 10° SE daylight
27 Mar - 00:04:18 10° SW 00:10:05 26° SSE 00:15:33 10° ESE visible
27 Mar - 01:56:40 10° WSW 02:03:01 40° S 02:09:00 10° ESE visible
27 Mar - 03:50:00 10° WSW 03:55:56 36° S 04:01:37 10° SE visible
27 Mar - 05:44:14 10° WSW 05:48:35 19° SSW 05:52:53 10° SSE night (unlit)
27 Mar - 23:03:49 10° SSW 23:09:06 21° SSE 23:14:10 10° ESE daylight
28 Mar - 00:55:36 10° SW 01:02:02 37° S 01:08:03 10° ESE visible
28 Mar - 02:48:45 10° WSW 02:55:01 40° S 03:00:56 10° ESE visible
28 Mar - 04:42:36 10° WSW 04:47:47 25° SSW 04:52:49 10° SE night (unlit)
28 Mar - 22:03:45 10° S 22:08:07 16° SSE 22:12:21 10° ESE daylight
28 Mar - 23:54:37 10° SW 00:01:01 33° SSE 00:07:01 10° ESE visible
29 Mar - 01:47:31 10° WSW 01:54:03 42° S 02:00:10 10° ESE visible
29 Mar - 03:41:09 10° WSW 03:46:56 31° SSW 03:52:28 10° SE visible
29 Mar - 05:36:22 10° WSW 05:39:29 14° SSW 05:42:32 10° S night (unlit)
29 Mar - 21:04:45 10° S 21:07:08 12° SSE 21:09:30 10° SE daylight
29 Mar - 22:53:49 10° SW 22:59:59 28° SSE 23:05:50 10° ESE daylight
30 Mar - 00:46:19 10° WSW 00:53:01 41° S 00:59:18 10° ESE visible
30 Mar - 02:39:46 10° WSW 02:46:02 37° S 02:51:55 10° SE visible
30 Mar - 04:34:09 10° WSW 04:38:42 20° SSW 04:43:07 10° SSE night (unlit)
30 Mar - 21:53:16 10° SSW 21:58:57 23° SSE 22:04:24 10° ESE daylight
30 Mar - 23:45:10 10° WSW 23:51:58 39° S 23:58:20 10° ESE daylight
